Year,Month,Day,Hour,Minute,Value (Times are PST for temperature in C)
2018,07,18,00,00,16.80
2018,07,18,00,01,16.70
2018,07,18,00,02,16.70
2018,07,18,00,03,16.70
2018,07,18,00,04,16.60
2018,07,18,00,05,16.60
2018,07,18,00,06,16.50
2018,07,18,00,07,16.50
2018,07,18,00,08,16.40
2018,07,18,00,09,16.40
2018,07,18,00,10,16.30
2018,07,18,00,11,16.30
2018,07,18,00,12,16.30
2018,07,18,00,13,16.20
2018,07,18,00,14,16.20
2018,07,18,00,15,16.20
2018,07,18,00,16,16.20
2018,07,18,00,17,16.10
2018,07,18,00,18,16.10
2018,07,18,00,19,16.10
2018,07,18,00,20,16.10
2018,07,18,00,21,16.10
2018,07,18,00,22,16.10
2018,07,18,00,23,16.10
2018,07,18,00,24,16.20
2018,07,18,00,25,16.20
2018,07,18,00,26,16.20
2018,07,18,00,27,16.20
2018,07,18,00,28,16.20
2018,07,18,00,29,16.20
2018,07,18,00,30,16.20
2018,07,18,00,31,16.30
2018,07,18,00,32,16.30
2018,07,18,00,33,16.30
2018,07,18,00,34,16.30
2018,07,18,00,35,16.30
2018,07,18,00,36,16.30
2018,07,18,00,37,16.30
2018,07,18,00,38,16.30
2018,07,18,00,39,16.30
2018,07,18,00,40,16.30
2018,07,18,00,41,16.30
2018,07,18,00,42,16.30
2018,07,18,00,43,16.30
2018,07,18,00,44,16.30
2018,07,18,00,45,16.30
2018,07,18,00,46,16.30
2018,07,18,00,47,16.30
2018,07,18,00,48,16.30
2018,07,18,00,49,16.30
2018,07,18,00,50,16.30
2018,07,18,00,51,16.30
2018,07,18,00,52,16.30
2018,07,18,00,53,16.30
2018,07,18,00,54,16.30
2018,07,18,00,55,16.30
2018,07,18,00,56,16.40
2018,07,18,00,57,16.40
2018,07,18,00,58,16.40
2018,07,18,00,59,16.40
2018,07,18,01,00,16.40
2018,07,18,01,01,16.40
2018,07,18,01,02,16.50
2018,07,18,01,03,16.50
2018,07,18,01,04,16.50
2018,07,18,01,05,16.50
2018,07,18,01,06,16.50
2018,07,18,01,07,16.50
2018,07,18,01,08,16.50
2018,07,18,01,09,16.50
2018,07,18,01,10,16.50
2018,07,18,01,11,16.50
2018,07,18,01,12,16.50
2018,07,18,01,13,16.50
2018,07,18,01,14,16.50
2018,07,18,01,15,16.40
2018,07,18,01,16,16.40
2018,07,18,01,17,16.40
2018,07,18,01,18,16.40
2018,07,18,01,19,16.40
2018,07,18,01,20,16.30
2018,07,18,01,21,16.30
2018,07,18,01,22,16.30
2018,07,18,01,23,16.30
2018,07,18,01,24,16.30
2018,07,18,01,25,16.30
2018,07,18,01,26,16.30
2018,07,18,01,27,16.30
2018,07,18,01,28,16.30
2018,07,18,01,29,16.30
2018,07,18,01,30,16.30
2018,07,18,01,31,16.30
2018,07,18,01,32,16.30
2018,07,18,01,33,16.20
2018,07,18,01,34,16.20
2018,07,18,01,35,16.20
2018,07,18,01,36,16.20
2018,07,18,01,37,16.20
2018,07,18,01,38,16.20
2018,07,18,01,39,16.20
2018,07,18,01,40,16.20
2018,07,18,01,41,16.20
2018,07,18,01,42,16.20
2018,07,18,01,43,16.20
2018,07,18,01,44,16.20
2018,07,18,01,45,16.20
2018,07,18,01,46,16.20
2018,07,18,01,47,16.30
2018,07,18,01,48,16.30
2018,07,18,01,49,16.30
2018,07,18,01,50,16.30
2018,07,18,01,51,16.30
2018,07,18,01,52,16.30
2018,07,18,01,53,16.30
2018,07,18,01,54,16.40
2018,07,18,01,55,16.40
2018,07,18,01,56,16.40
2018,07,18,01,57,16.40
2018,07,18,01,58,16.40
2018,07,18,01,59,16.40
2018,07,18,02,00,16.40
2018,07,18,02,01,16.30
2018,07,18,02,02,16.30
2018,07,18,02,03,16.30
2018,07,18,02,04,16.30
2018,07,18,02,05,16.30
2018,07,18,02,06,16.30
2018,07,18,02,07,16.30
2018,07,18,02,08,16.30
2018,07,18,02,09,16.30
2018,07,18,02,10,16.30
2018,07,18,02,11,16.30
2018,07,18,02,12,16.30
2018,07,18,02,13,16.30
2018,07,18,02,14,16.30
2018,07,18,02,15,16.30
2018,07,18,02,16,16.30
2018,07,18,02,17,16.30
2018,07,18,02,18,16.30
2018,07,18,02,19,16.30
2018,07,18,02,20,16.30
2018,07,18,02,21,16.30
2018,07,18,02,22,16.30
2018,07,18,02,23,16.30
2018,07,18,02,24,16.30
2018,07,18,02,25,16.20
2018,07,18,02,26,16.20
2018,07,18,02,27,16.20
2018,07,18,02,28,16.10
2018,07,18,02,29,16.10
2018,07,18,02,30,16.10
2018,07,18,02,31,16.00
2018,07,18,02,32,16.00
2018,07,18,02,33,16.00
2018,07,18,02,34,15.90
2018,07,18,02,35,15.90
2018,07,18,02,36,15.80
2018,07,18,02,37,15.80
2018,07,18,02,38,15.80
2018,07,18,02,39,15.80
2018,07,18,02,40,15.80
2018,07,18,02,41,15.80
2018,07,18,02,42,15.70
2018,07,18,02,43,15.70
2018,07,18,02,44,15.70
2018,07,18,02,45,15.70
2018,07,18,02,46,15.70
2018,07,18,02,47,15.70
2018,07,18,02,48,15.60
2018,07,18,02,49,15.60
2018,07,18,02,50,15.60
2018,07,18,02,51,15.60
2018,07,18,02,52,15.60
2018,07,18,02,53,15.60
2018,07,18,02,54,15.60
2018,07,18,02,55,15.60
2018,07,18,02,56,15.60
2018,07,18,02,57,15.60
2018,07,18,02,58,15.60
2018,07,18,02,59,15.60
2018,07,18,03,00,15.60
2018,07,18,03,01,15.60
2018,07,18,03,02,15.60
2018,07,18,03,03,15.60
2018,07,18,03,04,15.60
2018,07,18,03,05,15.60
2018,07,18,03,06,15.50
2018,07,18,03,07,15.50
2018,07,18,03,08,15.50
2018,07,18,03,09,15.50
2018,07,18,03,10,15.50
2018,07,18,03,11,15.50
2018,07,18,03,12,15.50
2018,07,18,03,13,15.50
2018,07,18,03,14,15.40
2018,07,18,03,15,15.50
2018,07,18,03,16,15.50
2018,07,18,03,17,15.50
2018,07,18,03,18,15.50
2018,07,18,03,19,15.50
2018,07,18,03,20,15.50
2018,07,18,03,21,15.50
2018,07,18,03,22,15.50
2018,07,18,03,23,15.40
2018,07,18,03,24,15.40
2018,07,18,03,25,15.40
2018,07,18,03,26,15.40
2018,07,18,03,27,15.40
2018,07,18,03,28,15.40
2018,07,18,03,29,15.40
2018,07,18,03,30,15.30
2018,07,18,03,31,15.30
2018,07,18,03,32,15.30
2018,07,18,03,33,15.30
2018,07,18,03,34,15.20
2018,07,18,03,35,15.20
2018,07,18,03,36,15.20
2018,07,18,03,37,15.20
2018,07,18,03,38,15.20
2018,07,18,03,39,15.10
2018,07,18,03,40,15.10
2018,07,18,03,41,15.10
2018,07,18,03,42,15.10
2018,07,18,03,43,15.00
2018,07,18,03,44,15.00
2018,07,18,03,45,15.00
2018,07,18,03,46,15.00
2018,07,18,03,47,14.90
2018,07,18,03,48,14.90
2018,07,18,03,49,14.90
2018,07,18,03,50,14.90
2018,07,18,03,51,14.90
2018,07,18,03,52,14.90
2018,07,18,03,53,14.90
2018,07,18,03,54,14.90
2018,07,18,03,55,14.90
2018,07,18,03,56,14.90
2018,07,18,03,57,14.90
2018,07,18,03,58,14.90
2018,07,18,03,59,14.90
2018,07,18,04,00,14.90
2018,07,18,04,01,14.90
2018,07,18,04,02,14.90
2018,07,18,04,03,14.90
2018,07,18,04,04,14.90
2018,07,18,04,05,14.90
2018,07,18,04,06,14.90
2018,07,18,04,07,14.90
2018,07,18,04,08,14.90
2018,07,18,04,09,14.90
2018,07,18,04,10,14.80
2018,07,18,04,11,14.80
2018,07,18,04,12,14.80
2018,07,18,04,13,14.80
2018,07,18,04,14,14.80
2018,07,18,04,15,14.80
2018,07,18,04,16,14.70
2018,07,18,04,17,14.70
2018,07,18,04,18,14.70
2018,07,18,04,19,14.70
2018,07,18,04,20,14.70
2018,07,18,04,21,14.70
2018,07,18,04,22,14.70
2018,07,18,04,23,14.70
2018,07,18,04,24,14.70
2018,07,18,04,25,14.60
2018,07,18,04,26,14.60
2018,07,18,04,27,14.60
2018,07,18,04,28,14.60
2018,07,18,04,29,14.60
2018,07,18,04,30,14.50
2018,07,18,04,31,14.50
2018,07,18,04,32,14.50
2018,07,18,04,33,14.40
2018,07,18,04,34,14.40
2018,07,18,04,35,14.40
2018,07,18,04,36,14.30
2018,07,18,04,37,14.30
2018,07,18,04,38,14.30
2018,07,18,04,39,14.30
2018,07,18,04,40,14.30
2018,07,18,04,41,14.30
2018,07,18,04,42,14.30
2018,07,18,04,43,14.30
2018,07,18,04,44,14.30
2018,07,18,04,45,14.30
2018,07,18,04,46,14.30
2018,07,18,04,47,14.30
2018,07,18,04,48,14.30
2018,07,18,04,49,14.30
2018,07,18,04,50,14.30
2018,07,18,04,51,14.30
2018,07,18,04,52,14.30
2018,07,18,04,53,14.30
2018,07,18,04,54,14.30
2018,07,18,04,55,14.30
2018,07,18,04,56,14.30
2018,07,18,04,57,14.20
2018,07,18,04,58,14.20
2018,07,18,04,59,14.20
2018,07,18,05,00,14.20
2018,07,18,05,01,14.20
2018,07,18,05,02,14.20
2018,07,18,05,03,14.10
2018,07,18,05,04,14.10
2018,07,18,05,05,14.10
2018,07,18,05,06,14.10
2018,07,18,05,07,14.10
2018,07,18,05,08,14.00
2018,07,18,05,09,14.00
2018,07,18,05,10,14.00
2018,07,18,05,11,14.10
2018,07,18,05,12,14.10
2018,07,18,05,13,14.10
2018,07,18,05,14,14.10
2018,07,18,05,15,14.10
2018,07,18,05,16,14.10
2018,07,18,05,17,14.10
2018,07,18,05,18,14.10
2018,07,18,05,19,14.10
2018,07,18,05,20,14.10
2018,07,18,05,21,14.20
2018,07,18,05,22,14.10
2018,07,18,05,23,14.10
2018,07,18,05,24,14.10
2018,07,18,05,25,14.10
2018,07,18,05,26,14.10
2018,07,18,05,27,14.20
2018,07,18,05,28,14.10
2018,07,18,05,29,14.10
2018,07,18,05,30,14.10
2018,07,18,05,31,14.10
2018,07,18,05,32,14.10
2018,07,18,05,33,14.00
2018,07,18,05,34,14.00
2018,07,18,05,35,14.00
2018,07,18,05,36,14.00
2018,07,18,05,37,13.90
2018,07,18,05,38,13.90
2018,07,18,05,39,13.90
2018,07,18,05,40,13.90
2018,07,18,05,41,13.90
2018,07,18,05,42,13.90
2018,07,18,05,43,13.90
2018,07,18,05,44,13.80
2018,07,18,05,45,13.70
2018,07,18,05,46,13.70
2018,07,18,05,47,13.60
2018,07,18,05,48,13.50
2018,07,18,05,49,13.40
2018,07,18,05,50,13.40
2018,07,18,05,51,13.30
2018,07,18,05,52,13.30
2018,07,18,05,53,13.30
2018,07,18,05,54,13.30
2018,07,18,05,55,13.30
2018,07,18,05,56,13.30
2018,07,18,05,57,13.30
2018,07,18,05,58,13.30
2018,07,18,05,59,13.30
2018,07,18,06,00,13.30
2018,07,18,06,01,13.20
2018,07,18,06,02,13.20
2018,07,18,06,03,13.20
2018,07,18,06,04,13.20
2018,07,18,06,05,13.20
2018,07,18,06,06,13.20
2018,07,18,06,07,13.20
2018,07,18,06,08,13.20
2018,07,18,06,09,13.20
2018,07,18,06,10,13.20
2018,07,18,06,11,13.20
2018,07,18,06,12,13.20
2018,07,18,06,13,13.20
2018,07,18,06,14,13.20
2018,07,18,06,15,13.20
2018,07,18,06,16,13.20
2018,07,18,06,17,13.20
2018,07,18,06,18,13.20
2018,07,18,06,19,13.10
2018,07,18,06,20,13.10
2018,07,18,06,21,13.10
2018,07,18,06,22,13.10
2018,07,18,06,23,13.10
2018,07,18,06,24,13.00
2018,07,18,06,25,13.00
2018,07,18,06,26,12.90
2018,07,18,06,27,13.00
2018,07,18,06,28,13.00
2018,07,18,06,29,12.90
2018,07,18,06,30,12.90
2018,07,18,06,31,12.90
2018,07,18,06,32,12.90
2018,07,18,06,33,12.90
2018,07,18,06,34,12.90
2018,07,18,06,35,12.90
2018,07,18,06,36,12.90
2018,07,18,06,37,12.90
2018,07,18,06,38,13.00
2018,07,18,06,39,12.90
2018,07,18,06,40,13.00
2018,07,18,06,41,13.00
2018,07,18,06,42,13.00
2018,07,18,06,43,13.00
2018,07,18,06,44,12.90
2018,07,18,06,45,12.90
2018,07,18,06,46,12.90
2018,07,18,06,47,12.90
2018,07,18,06,48,12.90
2018,07,18,06,49,12.90
2018,07,18,06,50,12.90
2018,07,18,06,51,12.90
2018,07,18,06,52,13.00
2018,07,18,06,53,13.00
2018,07,18,06,54,13.00
2018,07,18,06,55,13.10
2018,07,18,06,56,13.10
2018,07,18,06,57,13.10
2018,07,18,06,58,13.10
2018,07,18,06,59,13.20
2018,07,18,07,00,13.20
2018,07,18,07,01,13.20
2018,07,18,07,02,13.20
2018,07,18,07,03,13.20
2018,07,18,07,04,13.20
2018,07,18,07,05,13.20
2018,07,18,07,06,13.20
2018,07,18,07,07,13.20
2018,07,18,07,08,13.20
2018,07,18,07,09,13.10
2018,07,18,07,10,13.10
2018,07,18,07,11,13.10
2018,07,18,07,12,13.10
2018,07,18,07,13,13.10
2018,07,18,07,14,13.10
2018,07,18,07,15,13.10
2018,07,18,07,16,13.10
2018,07,18,07,17,13.10
2018,07,18,07,18,13.10
2018,07,18,07,19,13.10
2018,07,18,07,20,13.10
2018,07,18,07,21,13.10
2018,07,18,07,22,13.10
2018,07,18,07,23,13.10
2018,07,18,07,24,13.10
2018,07,18,07,25,13.10
2018,07,18,07,26,13.20
2018,07,18,07,27,13.10
2018,07,18,07,28,13.10
2018,07,18,07,29,13.10
2018,07,18,07,30,13.10
2018,07,18,07,31,13.20
2018,07,18,07,32,13.20
2018,07,18,07,33,13.20
2018,07,18,07,34,13.20
2018,07,18,07,35,13.20
2018,07,18,07,36,13.20
2018,07,18,07,37,13.20
2018,07,18,07,38,13.20
2018,07,18,07,39,13.20
2018,07,18,07,40,13.20
2018,07,18,07,41,13.20
2018,07,18,07,42,13.20
2018,07,18,07,43,13.20
2018,07,18,07,44,13.20
2018,07,18,07,45,13.20
2018,07,18,07,46,13.20
2018,07,18,07,47,13.10
2018,07,18,07,48,13.10
2018,07,18,07,49,13.10
2018,07,18,07,50,13.10
2018,07,18,07,51,13.10
2018,07,18,07,52,13.10
2018,07,18,07,53,13.10
2018,07,18,07,54,13.10
2018,07,18,07,55,13.00
2018,07,18,07,56,13.00
2018,07,18,07,57,13.00
2018,07,18,07,58,13.00
2018,07,18,07,59,13.00
2018,07,18,08,00,13.00
2018,07,18,08,01,13.00
2018,07,18,08,02,13.00
2018,07,18,08,03,13.00
2018,07,18,08,04,13.00
2018,07,18,08,05,13.00
2018,07,18,08,06,13.00
2018,07,18,08,07,13.00
2018,07,18,08,08,13.00
2018,07,18,08,09,13.00
2018,07,18,08,10,13.00
2018,07,18,08,11,13.00
2018,07,18,08,12,13.00
2018,07,18,08,13,13.00
2018,07,18,08,14,13.00
2018,07,18,08,15,13.00
2018,07,18,08,16,13.00
2018,07,18,08,17,13.00
2018,07,18,08,18,13.10
2018,07,18,08,19,13.10
2018,07,18,08,20,13.10
2018,07,18,08,21,13.10
2018,07,18,08,22,13.10
2018,07,18,08,23,13.20
2018,07,18,08,24,13.20
2018,07,18,08,25,13.20
2018,07,18,08,26,13.20
2018,07,18,08,27,13.20
2018,07,18,08,28,13.20
2018,07,18,08,29,13.10
2018,07,18,08,30,13.10
2018,07,18,08,31,13.10
2018,07,18,08,32,13.10
2018,07,18,08,33,13.10
2018,07,18,08,34,13.10
2018,07,18,08,35,13.10
2018,07,18,08,36,13.10
2018,07,18,08,37,13.10
2018,07,18,08,38,13.10
2018,07,18,08,39,13.10
2018,07,18,08,40,13.00
2018,07,18,08,41,13.00
2018,07,18,08,42,13.00
2018,07,18,08,43,12.90
2018,07,18,08,44,12.90
2018,07,18,08,45,12.90
2018,07,18,08,46,12.90
2018,07,18,08,47,12.90
2018,07,18,08,48,12.90
2018,07,18,08,49,12.90
2018,07,18,08,50,12.90
2018,07,18,08,51,12.80
2018,07,18,08,52,12.80
2018,07,18,08,53,12.90
2018,07,18,08,54,12.90
2018,07,18,08,55,12.90
2018,07,18,08,56,12.80
2018,07,18,08,57,12.90
2018,07,18,08,58,12.90
2018,07,18,08,59,12.90
2018,07,18,09,00,12.90
2018,07,18,09,01,12.90
2018,07,18,09,02,12.90
2018,07,18,09,03,12.90
2018,07,18,09,04,12.90
2018,07,18,09,05,12.90
2018,07,18,09,06,12.90
2018,07,18,09,07,12.90
2018,07,18,09,08,12.90
2018,07,18,09,09,12.90
2018,07,18,09,10,12.90
2018,07,18,09,11,12.90
2018,07,18,09,12,12.90
2018,07,18,09,13,12.90
2018,07,18,09,14,12.90
2018,07,18,09,15,12.90
2018,07,18,09,16,12.80
2018,07,18,09,17,12.90
2018,07,18,09,18,12.90
2018,07,18,09,19,12.80
2018,07,18,09,20,12.80
2018,07,18,09,21,12.80
2018,07,18,09,22,12.80
2018,07,18,09,23,12.80
2018,07,18,09,24,12.80
2018,07,18,09,25,12.80
2018,07,18,09,26,12.90
2018,07,18,09,27,12.90
2018,07,18,09,28,12.90
2018,07,18,09,29,12.90
2018,07,18,09,30,12.90
2018,07,18,09,31,12.80
2018,07,18,09,32,12.80
2018,07,18,09,33,12.80
2018,07,18,09,34,12.90
2018,07,18,09,35,12.90
2018,07,18,09,36,12.90
2018,07,18,09,37,12.90
2018,07,18,09,38,12.90
2018,07,18,09,39,12.90
2018,07,18,09,40,12.90
2018,07,18,09,41,12.90
2018,07,18,09,42,12.90
2018,07,18,09,43,12.90
2018,07,18,09,44,12.90
2018,07,18,09,45,13.00
2018,07,18,09,46,13.00
2018,07,18,09,47,13.00
2018,07,18,09,48,13.00
2018,07,18,09,49,13.10
2018,07,18,09,50,13.10
2018,07,18,09,51,13.10
2018,07,18,09,52,13.10
2018,07,18,09,53,13.10
2018,07,18,09,54,13.10
2018,07,18,09,55,13.10
2018,07,18,09,56,13.10
2018,07,18,09,57,13.10
2018,07,18,09,58,13.10
2018,07,18,09,59,13.20
2018,07,18,10,00,13.20
2018,07,18,10,01,13.20
2018,07,18,10,02,13.20
2018,07,18,10,03,13.20
2018,07,18,10,04,13.30
2018,07,18,10,05,13.30
2018,07,18,10,06,13.30
2018,07,18,10,07,13.30
2018,07,18,10,08,13.30
2018,07,18,10,09,13.40
2018,07,18,10,10,13.40
2018,07,18,10,11,13.40
2018,07,18,10,12,13.40
2018,07,18,10,13,13.50
2018,07,18,10,14,13.50
2018,07,18,10,15,13.60
2018,07,18,10,16,13.60
2018,07,18,10,17,13.60
2018,07,18,10,18,13.60
2018,07,18,10,19,13.70
2018,07,18,10,20,13.70
2018,07,18,10,21,13.70
2018,07,18,10,22,13.70
2018,07,18,10,23,13.60
2018,07,18,10,24,13.60
2018,07,18,10,25,13.60
2018,07,18,10,26,13.60
2018,07,18,10,27,13.60
2018,07,18,10,28,13.60
2018,07,18,10,29,13.60
2018,07,18,10,30,13.70
2018,07,18,10,31,13.70
2018,07,18,10,32,13.80
2018,07,18,10,33,13.80
2018,07,18,10,34,13.80
2018,07,18,10,35,13.80
2018,07,18,10,36,13.80
2018,07,18,10,37,13.80
2018,07,18,10,38,13.90
2018,07,18,10,39,13.90
2018,07,18,10,40,13.90
2018,07,18,10,41,13.90
2018,07,18,10,42,13.90
2018,07,18,10,43,13.80
2018,07,18,10,44,13.90
2018,07,18,10,45,13.90
2018,07,18,10,46,13.90
2018,07,18,10,47,13.90
2018,07,18,10,48,13.90
2018,07,18,10,49,14.00
2018,07,18,10,50,14.00
2018,07,18,10,51,14.00
2018,07,18,10,52,14.00
2018,07,18,10,53,14.00
2018,07,18,10,54,14.00
2018,07,18,10,55,14.00
2018,07,18,10,56,14.00
2018,07,18,10,57,14.00
2018,07,18,10,58,14.10
2018,07,18,10,59,14.10
2018,07,18,11,00,14.10
2018,07,18,11,01,14.00
2018,07,18,11,02,14.00
2018,07,18,11,03,14.00
2018,07,18,11,04,13.90
2018,07,18,11,05,13.90
2018,07,18,11,06,14.00
2018,07,18,11,07,14.00
2018,07,18,11,08,14.00
2018,07,18,11,09,14.10
2018,07,18,11,10,14.10
2018,07,18,11,11,14.10
2018,07,18,11,12,14.10
2018,07,18,11,13,14.10
2018,07,18,11,14,14.10
2018,07,18,11,15,14.10
2018,07,18,11,16,14.10
2018,07,18,11,17,14.20
2018,07,18,11,18,14.20
2018,07,18,11,19,14.20
2018,07,18,11,20,14.20
2018,07,18,11,21,14.20
2018,07,18,11,22,14.20
2018,07,18,11,23,14.30
2018,07,18,11,24,14.30
2018,07,18,11,25,14.30
2018,07,18,11,26,14.30
2018,07,18,11,27,14.40
2018,07,18,11,28,14.40
2018,07,18,11,29,14.40
2018,07,18,11,30,14.50
2018,07,18,11,31,14.60
2018,07,18,11,32,14.70
2018,07,18,11,33,14.70
2018,07,18,11,34,14.80
2018,07,18,11,35,14.80
2018,07,18,11,36,14.90
2018,07,18,11,37,15.00
2018,07,18,11,38,15.00
2018,07,18,11,39,15.10
2018,07,18,11,40,15.20
2018,07,18,11,41,15.20
2018,07,18,11,42,15.40
2018,07,18,11,43,15.50
2018,07,18,11,44,15.60
2018,07,18,11,45,15.70
2018,07,18,11,46,15.90
2018,07,18,11,47,16.00
2018,07,18,11,48,16.10
2018,07,18,11,49,16.20
2018,07,18,11,50,16.40
2018,07,18,11,51,16.50
2018,07,18,11,52,16.60
2018,07,18,11,53,16.70
2018,07,18,11,54,16.80
2018,07,18,11,55,17.00
2018,07,18,11,56,17.10
2018,07,18,11,57,17.20
2018,07,18,11,58,17.30
2018,07,18,11,59,17.40
2018,07,18,12,00,17.50
2018,07,18,12,01,17.60
2018,07,18,12,02,17.70
2018,07,18,12,03,17.80
2018,07,18,12,04,17.80
2018,07,18,12,05,17.90
2018,07,18,12,06,18.00
2018,07,18,12,07,18.10
2018,07,18,12,08,18.10
2018,07,18,12,09,18.20
2018,07,18,12,10,18.20
2018,07,18,12,11,18.30
2018,07,18,12,12,18.30
2018,07,18,12,13,18.30
2018,07,18,12,14,18.30
2018,07,18,12,15,18.30
2018,07,18,12,16,18.30
2018,07,18,12,17,18.40
2018,07,18,12,18,18.40
2018,07,18,12,19,18.40
2018,07,18,12,20,18.50
2018,07,18,12,21,18.50
2018,07,18,12,22,18.60
2018,07,18,12,23,18.70
2018,07,18,12,24,18.70
2018,07,18,12,25,18.80
2018,07,18,12,26,18.90
2018,07,18,12,27,18.90
2018,07,18,12,28,19.00
2018,07,18,12,29,19.10
2018,07,18,12,30,19.10
2018,07,18,12,31,19.20
2018,07,18,12,32,19.30
2018,07,18,12,33,19.30
2018,07,18,12,34,19.40
2018,07,18,12,35,19.50
2018,07,18,12,36,19.60
2018,07,18,12,37,19.70
2018,07,18,12,38,19.70
2018,07,18,12,39,19.80
2018,07,18,12,40,19.80
2018,07,18,12,41,19.80
2018,07,18,12,42,19.80
2018,07,18,12,43,19.80
2018,07,18,12,44,19.80
2018,07,18,12,45,19.80
2018,07,18,12,46,19.80
2018,07,18,12,47,19.80
2018,07,18,12,48,19.80
2018,07,18,12,49,19.80
2018,07,18,12,50,19.80
2018,07,18,12,51,19.80
2018,07,18,12,52,19.80
2018,07,18,12,53,19.80
2018,07,18,12,54,19.70
2018,07,18,12,55,19.70
2018,07,18,12,56,19.70
2018,07,18,12,57,19.70
2018,07,18,12,58,19.70
2018,07,18,12,59,19.70
2018,07,18,13,00,19.70
2018,07,18,13,01,19.70
2018,07,18,13,02,19.70
2018,07,18,13,03,19.70
2018,07,18,13,04,19.60
2018,07,18,13,05,19.60
2018,07,18,13,06,19.50
2018,07,18,13,07,19.40
2018,07,18,13,08,19.30
2018,07,18,13,09,19.20
2018,07,18,13,10,19.20
2018,07,18,13,11,19.20
2018,07,18,13,12,19.20
2018,07,18,13,13,19.20
2018,07,18,13,14,19.30
2018,07,18,13,15,19.30
2018,07,18,13,16,19.40
2018,07,18,13,17,19.50
2018,07,18,13,18,19.60
2018,07,18,13,19,19.60
2018,07,18,13,20,19.70
2018,07,18,13,21,19.70
2018,07,18,13,22,19.80
2018,07,18,13,23,19.80
2018,07,18,13,24,19.90
2018,07,18,13,25,20.00
2018,07,18,13,26,20.00
2018,07,18,13,27,20.10
2018,07,18,13,28,20.10
2018,07,18,13,29,20.20
2018,07,18,13,30,20.30
2018,07,18,13,31,20.40
2018,07,18,13,32,20.50
2018,07,18,13,33,20.50
2018,07,18,13,34,20.60
2018,07,18,13,35,20.70
2018,07,18,13,36,20.70
2018,07,18,13,37,20.70
2018,07,18,13,38,20.80
2018,07,18,13,39,20.80
2018,07,18,13,40,20.80
2018,07,18,13,41,20.80
2018,07,18,13,42,20.80
2018,07,18,13,43,20.80
2018,07,18,13,44,20.90
2018,07,18,13,45,20.90
2018,07,18,13,46,20.90
2018,07,18,13,47,20.90
2018,07,18,13,48,21.00
2018,07,18,13,49,21.00
2018,07,18,13,50,21.10
2018,07,18,13,51,21.20
2018,07,18,13,52,21.20
2018,07,18,13,53,21.20
2018,07,18,13,54,21.30
2018,07,18,13,55,21.30
2018,07,18,13,56,21.40
2018,07,18,13,57,21.50
2018,07,18,13,58,21.50
2018,07,18,13,59,21.60
2018,07,18,14,00,21.60
2018,07,18,14,01,21.70
2018,07,18,14,02,21.70
2018,07,18,14,03,21.70
2018,07,18,14,04,21.80
2018,07,18,14,05,21.80
2018,07,18,14,06,21.90
2018,07,18,14,07,21.90
2018,07,18,14,08,22.00
2018,07,18,14,09,22.00
2018,07,18,14,10,22.10
2018,07,18,14,11,22.10
2018,07,18,14,12,22.20
2018,07,18,14,13,22.20
2018,07,18,14,14,22.20
2018,07,18,14,15,22.20
2018,07,18,14,16,22.20
2018,07,18,14,17,22.20
2018,07,18,14,18,22.20
2018,07,18,14,19,22.20
2018,07,18,14,20,22.20
2018,07,18,14,21,22.20
2018,07,18,14,22,22.20
2018,07,18,14,23,22.20
2018,07,18,14,24,22.30
2018,07,18,14,25,22.30
2018,07,18,14,26,22.30
2018,07,18,14,27,22.30
2018,07,18,14,28,22.30
2018,07,18,14,29,22.30
2018,07,18,14,30,22.30
2018,07,18,14,31,22.40
2018,07,18,14,32,22.40
2018,07,18,14,33,22.40
2018,07,18,14,34,22.40
2018,07,18,14,35,22.50
2018,07,18,14,36,22.50
2018,07,18,14,37,22.60
2018,07,18,14,38,22.60
2018,07,18,14,39,22.60
2018,07,18,14,40,22.60
2018,07,18,14,41,22.60
2018,07,18,14,42,22.60
2018,07,18,14,43,22.60
2018,07,18,14,44,22.60
2018,07,18,14,45,22.60
2018,07,18,14,46,22.60
2018,07,18,14,47,22.70
2018,07,18,14,48,22.70
2018,07,18,14,49,22.70
2018,07,18,14,50,22.80
2018,07,18,14,51,22.80
2018,07,18,14,52,22.80
2018,07,18,14,53,22.80
2018,07,18,14,54,22.80
2018,07,18,14,55,22.80
2018,07,18,14,56,22.90
2018,07,18,14,57,22.90
2018,07,18,14,58,23.00
2018,07,18,14,59,23.00
2018,07,18,15,00,23.10
2018,07,18,15,01,23.10
2018,07,18,15,02,23.20
2018,07,18,15,03,23.20
2018,07,18,15,04,23.30
2018,07,18,15,05,23.30
2018,07,18,15,06,23.20
2018,07,18,15,07,23.20
2018,07,18,15,08,23.20
2018,07,18,15,09,23.10
2018,07,18,15,10,23.10
2018,07,18,15,11,23.10
2018,07,18,15,12,23.10
2018,07,18,15,13,23.10
2018,07,18,15,14,23.10
2018,07,18,15,15,23.10
2018,07,18,15,16,23.00
2018,07,18,15,17,22.90
2018,07,18,15,18,22.90
2018,07,18,15,19,22.90
2018,07,18,15,20,22.80
2018,07,18,15,21,22.80
2018,07,18,15,22,22.80
2018,07,18,15,23,22.80
2018,07,18,15,24,22.80
2018,07,18,15,25,22.90
2018,07,18,15,26,22.90
2018,07,18,15,27,22.90
2018,07,18,15,28,22.90
2018,07,18,15,29,23.00
2018,07,18,15,30,23.00
2018,07,18,15,31,23.10
2018,07,18,15,32,23.10
2018,07,18,15,33,23.20
2018,07,18,15,34,23.20
2018,07,18,15,35,23.20
2018,07,18,15,36,23.10
2018,07,18,15,37,23.10
2018,07,18,15,38,22.70
2018,07,18,15,39,22.30
2018,07,18,15,40,22.00
2018,07,18,15,41,21.70
2018,07,18,15,42,21.50
2018,07,18,15,43,21.30
2018,07,18,15,44,21.10
2018,07,18,15,45,21.00
2018,07,18,15,46,20.90
2018,07,18,15,47,20.80
2018,07,18,15,48,20.60
2018,07,18,15,49,20.50
2018,07,18,15,50,20.40
2018,07,18,15,51,20.30
2018,07,18,15,52,20.30
2018,07,18,15,53,20.20
2018,07,18,15,54,20.20
2018,07,18,15,55,20.10
2018,07,18,15,56,20.10
2018,07,18,15,57,20.10
2018,07,18,15,58,20.00
2018,07,18,15,59,20.00
2018,07,18,16,00,20.00
2018,07,18,16,01,20.00
2018,07,18,16,02,20.00
2018,07,18,16,03,19.90
2018,07,18,16,04,19.90
2018,07,18,16,05,19.90
2018,07,18,16,06,19.90
2018,07,18,16,07,19.90
2018,07,18,16,08,19.90
2018,07,18,16,09,19.80
2018,07,18,16,10,19.80
2018,07,18,16,11,19.80
2018,07,18,16,12,19.80
2018,07,18,16,13,19.80
2018,07,18,16,14,19.70
2018,07,18,16,15,19.70
2018,07,18,16,16,19.70
2018,07,18,16,17,19.70
2018,07,18,16,18,19.80
2018,07,18,16,19,19.80
2018,07,18,16,20,19.80
2018,07,18,16,21,19.80
2018,07,18,16,22,19.90
2018,07,18,16,23,20.00
2018,07,18,16,24,20.00
2018,07,18,16,25,20.00
2018,07,18,16,26,20.00
2018,07,18,16,27,20.00
2018,07,18,16,28,20.10
2018,07,18,16,29,20.10
2018,07,18,16,30,20.10
2018,07,18,16,31,20.20
2018,07,18,16,32,20.20
2018,07,18,16,33,20.10
2018,07,18,16,34,20.10
2018,07,18,16,35,20.10
2018,07,18,16,36,19.90
2018,07,18,16,37,19.80
2018,07,18,16,38,19.70
2018,07,18,16,39,19.60
2018,07,18,16,40,19.60
2018,07,18,16,41,19.60
2018,07,18,16,42,19.60
2018,07,18,16,43,19.60
2018,07,18,16,44,19.50
2018,07,18,16,45,19.50
2018,07,18,16,46,19.40
2018,07,18,16,47,19.40
2018,07,18,16,48,19.30
2018,07,18,16,49,19.10
2018,07,18,16,50,18.90
2018,07,18,16,51,18.80
2018,07,18,16,52,18.60
2018,07,18,16,53,18.50
2018,07,18,16,54,18.40
2018,07,18,16,55,18.30
2018,07,18,16,56,18.30
2018,07,18,16,57,18.20
2018,07,18,16,58,18.20
2018,07,18,16,59,18.20
2018,07,18,17,00,18.20
2018,07,18,17,01,18.20
2018,07,18,17,02,18.20
2018,07,18,17,03,18.20
2018,07,18,17,04,18.30
2018,07,18,17,05,18.30
2018,07,18,17,06,18.30
2018,07,18,17,07,18.30
2018,07,18,17,08,18.30
2018,07,18,17,09,18.30
2018,07,18,17,10,18.40
2018,07,18,17,11,18.40
2018,07,18,17,12,18.40
2018,07,18,17,13,18.50
2018,07,18,17,14,18.60
2018,07,18,17,15,18.60
2018,07,18,17,16,18.70
2018,07,18,17,17,18.70
2018,07,18,17,18,18.70
2018,07,18,17,19,18.70